Weather in Akhvenlambi

Russia / Republic of Karelia     63°23′59″N   33°12′01″E
temp.,
°C
wind,
m/s
gust,
m/s
humid.,
%
clouds,
%
prec.,
mm/h
press.,
hPa
HPBL,
m
21 january, thu
thu2100:00−15ne119797 0.0 101421
03:00−15ne119699 0.0 101521
06:00−17ne129885 0.0 101420
09:00−17ne229861 0.0 101429
12:00−16ene239662 0.0 101599
15:00−15ene259581 0.0 1014117
18:00−15e3794100 0.0 1014163
21:00−14ese4990100 0.0 1013359
22 january, fri
fri2200:00−13ese51086100 0.0 1012515
03:00−13ese61185100 0.0 1011532
06:00−13ese61288100 0.3 1008609
09:00−13se71494100 2.9 1008668
12:00−13se51094100 1.8 1007675
15:00−14se5991100 2.3 1007561
18:00−14se4893100 0.1 1007477
21:00−14ese4893100 0.2 1006460
23 january, sat
sat2300:00−13ese4893100 0.1 1006427
03:00−13ese5994100 0.6 1005408
06:00−12ese4994100 0.9 1004406
09:00−9se5995100 3.3 1002406
12:00−7sse4995100 1.1 1001309
15:00−4sse4996100 1.9 1001316
18:00+1sse41099100 1.4 1000400
21:00+1sw4999100 2.9 1000442
24 january, sun
sun2400:000sw4995100 0.1 1001559
03:00−2ssw3793100 0.1 1002164
06:00−5sw239693 0.0 100359
09:00−4s249796 0.0 1004118
12:00−3sse249699 0.0 100599
15:000se389999 1.0 1004358
18:00+1se3799100 1.5 1003205
21:00+1sse3799100 2.8 1003211
25 january, mon
mon2500:00+1s2699100 0.7 1003182
03:00+1sse3699100 1.3 1003174
06:00+1sse3799100 1.0 1003226
09:000se3798100 1.1 1002342
12:00+1se3999100 0.8 1002295
15:00+1se4899100 1.4 1002280
18:00+1s41098100 0.4 1001373
21:00+1sse41097100 0.4 1002546